Regional Weather Roundup
Issued by NWS Sterling, VA

Home | Current Version | Previous Version | Graphics & Text | Print | Product List | Glossary On
Versions: 1 2 3 4 5 6 7 8 9 10 11 12 13 14 15 16 17 18 19 20 21 22 23 24 25 26 27 28 29 30 31 32 33 34 35 36 37 38 39 40 41 42 43 44 45 46 47 48 49 50
000
ASUS41 KLWX 310810
RWRLWX

REGIONAL WEATHER ROUNDUP
NATIONAL WEATHER SERVICE BALTIMORE MD/WASHINGTON DC
400 AM EDT THU JUL 31 2014

Note: "FAIR" indicates few or no clouds below 12,000 feet
with no significant weather and/or obstructions to visibility.
 TC=TEMPERATURE CELSIUS

 * =Non NWS site. Station does not report precipitation (e.g. rain,
    snow, etc.), thunder, or fog.

DCZ001-MDZ009-015-VAZ040>042-051-053>054-310900-
WASHINGTON METRO
  /KDAA//-FT BELVOIR

CITY           SKY/WX    TMP DP  RH WIND       PRES   REMARKS
WASHINGTON NAT CLEAR     68  59  73 SW3       30.07S
DULLES         CLEAR     58  56  93 CALM      30.07S
ANDREWS AFB    CLEAR     63  59  86 S3        30.07S
QUANTICO       CLEAR     63  59  87 NW3       30.08S
COLLEGE PARK*  CLEAR     61  59  94 CALM      30.07S
LEESBURG*      CLEAR     61  61 100 CALM      30.07S
GAITHERSBURG*  CLEAR     61  55  82 SE7       30.10F

$$

MDZ006>007-011-014-310900-
BALTIMORE METRO

CITY           SKY/WX    TMP DP  RH WIND       PRES   REMARKS
BWI AIRPORT    PTCLDY    62  56  80 CALM      30.06F
MD SCIENCE CTR   N/A     69  56  62 MISG      30.07F
MARTIN STATE   PTCLDY    63  59  88 CALM      30.08S
ANNAPOLIS      CLEAR     66  59  78 CALM      30.06F
FORT MEADE*    CLEAR     55  54  94 CALM      30.09S

$$

MDZ012-015-019>023-310900-
MARYLAND EASTERN SHORE

CITY           SKY/WX    TMP DP  RH WIND       PRES   REMARKS
OCEAN CITY     CLEAR     56  54  93 CALM      30.09S
SALISBURY      CLEAR     59  54  83 CALM      30.09S
BAY BRIDGE AP*   N/A     70  59  68 S5        30.07S
CAMBRIDGE*     CLEAR     61  57  88 SE3       30.07S
EASTON*        CLEAR     65  60  85 CALM      30.11S

$$

MDZ017>025-310900-
SOUTHERN MARYLAND

CITY           SKY/WX    TMP DP  RH WIND       PRES   REMARKS
PATUXENT RIVER CLEAR     65  61  87 SW5       30.07F
ST INIGOES     CLEAR     69  62  78 S7        30.07S
LEONARDTOWN*   CLEAR     63  59  88 CALM      30.09S

$$

MDZ003>005-310900-
NORTH CENTRAL MARYLAND

CITY           SKY/WX    TMP DP  RH WIND       PRES   REMARKS
FREDERICK*     PTCLDY    63  63 100 CALM      30.08F
HAGERSTOWN APT CLEAR     63  60  90 CALM      30.06F
WESTMINSTER*   MOCLDY    64  61  88 CALM      30.07S

$$

MDZ501>502-310900-
WESTERN MARYLAND

CITY           SKY/WX    TMP DP  RH WIND       PRES   REMARKS
OAKLAND*       CLEAR     54 N/A N/A SW7       30.12F
CUMBERLAND*    CLOUDY    57  54  88 CALM      30.12S VSB<1/4

$$

VAZ025>031-310900-
SHENANDOAH VALLEY

CITY           SKY/WX    TMP DP  RH WIND       PRES   REMARKS
WINCHESTER*    CLEAR     59  55  88 CALM      30.07S
STAUNTON*      CLEAR     57  54  90 CALM      30.12S

$$

WVZ021-048>050-054>055-310900-
EASTERN WEST VIRGINIA PANHANDLE

CITY           SKY/WX    TMP DP  RH WIND       PRES   REMARKS
MARTINSBURG    CLEAR     60  56  86 CALM      30.07S FOG
PETERSBURG*    PTCLDY    54  51  89 CALM      30.10S FOG

$$

VAZ036>039-050-310900-
CENTRAL FOOTHILLS

CITY           SKY/WX    TMP DP  RH WIND       PRES   REMARKS
CHARLOTTESVILL CLEAR     59  57  93 W3        30.08F
ORANGE*        CLEAR     57  55  94 CALM      30.09S

$$

VAZ055>057-310900-
NORTH AND CENTRAL PIEDMONT

CITY           SKY/WX    TMP DP  RH WIND       PRES   REMARKS
FREDERICKSBRG* CLEAR     60  59  97 CALM      30.07S
STAFFORD*      CLEAR     56  56 100 CALM      30.11S FOG

$$

NCZ024-NYZ072-PAZ021-071-VAZ022-071-310900-
OTHER REGIONAL OBSERVATIONS

CITY           SKY/WX    TMP DP  RH WIND       PRES   REMARKS
NEW YORK CITY  CLEAR     69  53  56 CALM      30.09R
PHILADELPHIA   CLEAR     66  56  70 SW5       30.07S
PITTSBURGH     CLEAR     58  56  93 S5        30.04F FOG
ROANOKE        PTCLDY    60  55  83 CALM      30.13F
RICHMOND       CLEAR     66  61  84 CALM      30.08F
RALEIGH        MOCLDY    68  63  84 CALM      30.09S

$$

ANZ530>537-310900-
MARINE OBSERVATIONS

STATION/POSITION TIME  TEMP    WIND        PRES
                       AIR SEA DIR/SP/G
                 (UTC) (F)     (DEG/KT/KT) (MB)
THOMAS PT LIGHT  0800   74 77  190/ 13/ 14 1018.4F
BALT KEY BRIDGE  0800   69     230/  5/  6 1017.9F
COVE POINT       0800   70     210/  9/ 10 1018.2F
LEWISETTA        0800   68 77  230/  7/  8 1018.2F
SOLOMONS ISLAND  0800      79                N/A
PINEY POINT      0800          210/ 10/ 13   N/A

$$




USA.gov is the U.S. government's official web portal to all federal, state and local government web resources and services.